SCP
0 0 0 0 0 0 0 0 0 0 0 0 0 0 0 0 0 0 0 0 0 0 0 0 0 0 0 0 0 0 0 0 0 0 0 0 0 0 0 0 0 0 0
0 0 0 0 0 0 0 0 0 0 0 0 0 0 0 0 0 0 0 0 0 0 0 0 0 0 0 0 0 0 0 0 0 0 0 0 0 0 0 0 0 0 0
0 0 0 0 0 0 0 0 0 0 0 0 0 0 0 0 0 0 0 0 0 0 0 0 0 0 0 0 0 0 0 0 0 0 0 0 0 0 0 0 0 0 0
0 0 0 0 0 0 0 0 0 0 0 0 0 0 0 0 0 0 0 0 0 0 0 0 0 0 0 0 0 0 0 0 0 0 0 0 0 0 0 0 0 0 0
0 0 0 0 0 0 0 0 0 0 0 0 0 0 0 0 0 0 0 0 0 0 0 0 0 0 0 0 0 0 0 0 0 0 0 0 0 0 0 0 0 0 0
0 0 0 0 0 0 0 0 0 0 0 0 0 0 0 0 0 0 0 0 0 0 0 0 0 0 0 0 0 0 0 0 0 0 0 0 0 0 0 0 0 0 0
0 0 0 0 0 0 0 0 0 0 0 0 0 0 0 0 0 0 0 0 0 0 0 0 0 0 0 0 0 0 0 0 0 0 0 0 0 0 0 0 0 0 0
0 0 0 0 0 0 0 0 0 0 0 0 0 0 0 0 0 0 0 0 0 0 0 0 0 0 0 0 0 0 0 0 0 0 0 0 0 0 0 0 0 0 0
0 0 0 0 0 0 0 0 0 0 0 0 0 0 0 0 0 0 0 0 0 0 0 0 0 0 0 0 0 0 0 0 0 0 0 0 0 0 0 0 0 0 0
0 0 0 0 0 0 0 0 0 0 0 0 0 0 0 0 0 0 0 0 0 0 0 0 0 0 0 0 0 0 0 0 0 0 0 0 0 0 0 0 0 0 0
0 0 0 0 0 0 0 0 0 0 0 0 0 0 0 0 0 0 0 0 0 0 0 0 0 0 0 0 0 0 0 0 0 0 0 0 0 0 0 0 0 0 0
0 0 0 0 0 0 0 0 0 0 0 0 0 0 0 0 0 0 0 0 0 0 0 0 0 0 0 0 0 0 0 0 0 0 0 1 1 1 1 1 1 1 1
0 0 0 0 0 0 0 0 0 0 0 0 0 0 0 0 0 0 0 0 0 0 0 0 0 0 0 0 0 0 0 0 0 0 0 0 1 1 1 1 1 1 1
0 0 0 0 0 0 0 0 0 0 0 0 0 0 0 0 0 0 0 0 0 0 0 0 0 0 0 0 0 0 0 0 0 0 0 0 0 1 1 1 1 1 1
0 0 0 0 0 0 0 0 0 0 0 0 0 0 0 0 0 0 0 0 0 0 0 0 0 0 0 0 0 0 0 0 0 0 0 0 0 0 0 1 1 1 1
0 0 0 0 0 0 0 0 0 0 0 0 0 0 0 0 0 0 0 0 0 0 0 0 0 0 0 0 0 0 0 0 0 0 0 0 0 0 0 0 0 0 0
0 0 0 0 0 0 0 0 0 0 0 0 0 0 0 0 0 0 0 0 0 0 0 0 0 0 0 0 0 0 0 0 0 0 0 0 0 0 0 0 0 0 0
0 0 0 0 0 0 0 0 0 0 0 0 0 0 0 0 0 0 0 0 0 0 0 0 0 0 0 0 0 0 0 0 0 0 0 0 0 0 0 0 0 0 0
0 0 0 0 0 0 0 0 0 0 0 0 0 0 0 0 0 0 0 0 0 0 0 0 0 0 0 -0 0 0 0 0 0 0 0 0 0 0 0 0 0 0 0
0 0 0 0 0 0 0 0 0 0 0 0 0 0 0 0 0 0 0 0 0 0 0 0 0 0 0 0 -0 -0 -0 0 0 0 0 0 0 0 0 0 0 0 0
0 0 0 0 0 0 0 0 0 0 0 0 0 0 0 0 0 0 0 0 0 0 0 0 0 0 0 0 0 -0 -0 -0 -0 -0 0 0 0 0 0 0 0 0 0
0 0 0 0 0 0 0 0 0 0 0 0 0 0 0 0 0 0 0 0 0 0 0 0 0 0 0 0 0 0 0 -0 -0 -0 0 0 0 0 0 0 0 0 0
0 0 0 0 0 0 0 0 0 0 0 0 0 0 0 0 0 0 0 0 0 0 0 0 0 0 0 0 0 0 0 0 -0 0 0 0 0 0 0 0 0 0 0
0 0 0 0 0 0 0 0 0 0 0 0 0 0 0 0 0 0 0 0 0 0 0 0 0 0 0 0 0 0 0 0 0 0 0 0 0 0 0 0 0 0 0
0 0 0 0 0 0 0 0 0 0 0 0 0 0 0 0 0 0 0 0 0 0 0 0 0 0 0 0 0 0 0 0 -0 -0 -0 0 0 0 0 0 0 0 0
0 0 0 0 0 0 0 0 0 0 0 0 0 0 0 0 0 0 0 0 0 0 0 0 0 0 0 0 0 0 0 0 -0 -0 -0 -0 0 0 0 0 0 0 0
Wind_Speed
4 4 4 4 4 4 5 6 6 7 7 7 7 8 9 8 9 8 7 17 21 22 24 26 27 27 27 28 27 27 26 26 26 26 25 25 25 25 25 24 24 24 24
5 4 4 4 5 5 6 6 7 7 7 6 8 9 10 9 9 10 9 12 21 23 24 26 27 29 29 30 30 29 29 29 28 28 28 27 27 27 27 26 26 26 26
5 5 5 5 6 5 6 6 6 6 7 7 10 10 9 10 11 11 11 9 10 18 24 27 28 30 30 31 32 31 31 30 30 30 30 30 29 29 29 29 28 28 28
6 5 5 7 6 4 5 5 5 6 8 7 8 9 9 9 11 12 11 11 9 10 16 26 28 30 31 32 33 33 33 30 27 28 30 31 31 31 31 31 30 30 30
5 5 6 7 5 4 5 6 6 5 8 9 9 9 8 9 11 11 13 13 13 13 12 18 25 28 30 32 33 34 34 33 28 26 28 29 31 32 33 33 32 32 32
5 5 5 7 5 4 5 5 8 7 8 10 10 11 10 10 9 10 12 13 13 15 15 15 14 16 26 31 33 34 35 35 33 30 29 29 30 31 34 35 34 34 34
4 3 4 5 5 5 7 7 7 8 8 6 7 9 9 10 11 11 11 12 13 14 13 15 13 11 11 24 30 32 33 33 34 34 33 32 32 33 34 36 36 35 35
6 5 4 4 5 5 6 7 7 6 7 5 4 6 6 5 8 10 10 10 12 11 12 15 14 14 12 10 15 27 30 32 33 33 33 34 34 35 35 36 36 36 35
9 9 8 6 6 5 5 6 6 7 8 6 5 7 8 7 5 5 8 10 11 10 11 11 14 15 15 13 12 19 27 31 33 33 33 33 33 34 34 35 36 36 35
9 9 8 8 7 6 6 7 7 6 7 7 6 5 8 9 10 8 4 5 8 9 11 10 11 13 14 12 14 20 24 29 33 33 33 33 33 33 34 34 35 35 35
8 10 9 8 7 6 6 7 7 6 4 5 5 7 8 8 7 9 12 7 6 6 7 9 10 10 12 13 12 17 25 30 33 34 34 33 33 34 34 34 34 34 34
5 9 9 8 7 7 7 7 7 7 6 6 6 5 6 6 7 7 12 13 11 7 8 7 8 8 9 10 14 20 24 29 32 33 34 34 33 33 34 34 34 33 33
5 9 8 8 8 8 8 7 7 7 7 7 7 6 6 6 7 8 10 12 13 10 8 7 7 8 7 7 9 17 20 26 29 32 34 35 34 32 31 33 34 33 32
5 8 9 9 9 9 9 8 7 7 7 7 8 8 7 7 7 8 8 10 13 11 9 8 5 6 6 7 10 16 13 19 24 29 32 33 33 29 28 30 31 31 30
6 8 8 8 9 9 9 9 7 9 8 7 8 8 8 8 7 7 7 7 9 14 15 12 6 6 6 8 13 12 12 17 21 24 27 28 29 30 30 28 28 27 27
7 7 8 8 9 9 9 9 9 9 9 8 8 10 10 8 8 6 6 6 7 10 13 12 10 9 9 10 14 13 14 21 23 25 26 25 26 29 31 31 29 27 27
7 7 8 9 9 9 10 10 10 9 11 11 10 11 12 11 8 7 7 7 7 7 11 13 11 10 12 12 12 11 12 13 13 21 25 25 26 27 28 29 29 28 27
6 7 8 8 9 9 10 10 10 10 11 12 11 11 11 10 10 9 9 9 8 6 8 14 14 11 12 11 13 14 13 12 12 18 23 25 25 25 25 26 26 27 26
7 8 8 9 9 10 10 8 9 10 10 10 9 10 12 12 11 10 11 10 7 7 6 10 14 12 11 9 12 13 13 11 12 13 19 21 22 22 23 23 24 24 24
8 9 9 9 9 11 10 10 12 12 11 9 8 10 12 12 13 14 12 9 8 9 8 9 11 11 11 10 9 11 12 9 10 11 16 18 19 21 22 23 22 22 22
9 8 9 10 10 10 10 15 14 14 12 12 11 10 11 18 22 18 16 14 13 11 11 11 12 12 12 10 10 10 14 12 10 8 11 11 10 9 9 14 18 21 22
8 9 9 11 12 11 21 25 21 13 13 13 15 14 14 14 19 26 28 27 25 19 17 15 15 16 17 15 13 13 13 15 15 5 8 9 6 10 9 8 15 20 21
9 9 10 11 12 14 24 26 26 18 12 13 14 14 14 15 21 14 20 26 23 28 29 21 19 19 19 17 17 17 15 17 18 10 11 16 9 12 10 11 20 21 21
8 9 10 11 12 15 24 26 27 14 11 12 13 13 14 14 15 21 19 18 16 17 22 18 16 18 18 16 16 18 18 19 17 13 12 15 10 10 8 7 16 19 20
9 9 10 11 12 15 23 26 26 12 11 12 12 12 15 14 25 32 23 21 21 17 22 28 30 28 29 29 24 16 14 14 15 12 7 9 8 6 4 4 8 15 14
9 11 12 10 11 13 21 25 26 12 12 12 11 11 18 22 29 33 22 19 20 19 19 20 20 20 17 18 23 15 12 13 14 12 6 4 4 3 4 2 3 3 5
Wind_Direction
224 224 228 229 233 232 235 242 245 248 251 254 251 248 248 245 248 247 255 258 260 262 264 262 260 260 260 257 249 246 247 248 247 246 245 244 244 244 244 243 242 241 241
227 231 240 241 241 237 240 243 246 251 256 255 258 251 251 249 249 246 243 252 255 257 259 261 259 259 260 261 259 252 247 246 246 246 246 246 245 245 245 245 245 244 243
228 235 247 249 246 238 240 247 251 252 259 256 259 256 254 251 249 248 246 245 249 253 255 257 258 257 258 259 260 260 257 251 248 247 246 246 245 245 245 245 245 245 245
228 234 248 258 254 240 238 246 250 252 258 259 262 261 256 257 254 252 251 250 246 246 250 252 254 255 255 256 257 258 259 258 254 251 249 249 248 247 246 246 245 245 245
241 240 255 266 267 254 249 255 259 245 265 269 267 268 260 255 256 255 252 250 247 246 245 250 250 250 252 254 256 257 257 257 256 254 252 250 249 249 249 249 247 246 246
251 244 259 272 278 274 271 260 265 263 265 274 280 279 273 262 257 255 254 252 249 247 245 245 247 248 248 251 254 256 256 257 257 257 256 255 252 251 251 251 250 249 248
283 266 274 284 285 277 280 279 276 278 277 274 278 280 271 258 254 253 250 251 252 250 247 247 248 246 248 248 249 250 252 254 255 256 256 255 253 253 253 252 251 250 250
19 15 354 334 325 313 309 305 296 288 284 265 257 280 283 266 245 245 245 246 248 247 245 244 244 244 244 244 245 245 246 248 250 252 253 253 253 252 252 251 251 250 250
37 32 25 16 5 360 343 332 325 312 307 297 252 264 286 285 279 251 244 246 246 246 245 243 241 241 240 240 243 245 244 246 249 251 252 252 251 252 252 251 250 249 248
29 22 16 10 3 359 352 346 348 336 329 325 318 281 284 298 301 299 259 258 261 258 255 254 251 247 244 244 243 241 242 245 250 254 254 254 252 250 250 250 250 249 248
20 16 9 4 357 350 342 338 337 334 327 319 318 315 313 311 302 305 302 298 283 267 266 261 259 255 250 246 247 246 245 247 253 257 258 257 255 252 249 248 249 249 249
5 10 2 358 350 346 339 333 326 321 313 307 306 304 305 303 309 304 301 303 297 290 284 279 272 266 258 252 250 249 247 250 254 259 262 262 259 257 253 249 248 249 249
356 358 355 350 348 341 335 332 325 319 309 310 305 302 299 293 295 295 296 300 299 295 279 269 269 274 273 267 265 260 256 254 256 259 263 265 264 261 257 254 251 250 250
346 349 347 345 341 338 336 333 324 318 317 312 309 308 305 298 293 289 289 297 300 299 291 282 272 280 297 297 289 286 280 269 261 261 262 263 263 261 259 256 253 252 252
348 345 339 339 337 335 334 332 325 321 321 320 316 310 307 303 296 290 287 292 299 305 302 301 295 290 290 291 291 292 287 283 276 269 264 259 255 256 257 257 254 252 249
343 338 339 337 335 334 332 329 327 323 331 327 318 312 309 305 302 295 295 295 290 292 295 298 301 303 299 295 291 288 287 285 283 279 274 265 256 251 252 253 253 253 251
338 339 337 336 335 334 331 328 325 331 328 321 316 316 314 313 315 315 307 300 294 293 298 301 303 307 304 300 299 292 289 286 284 279 277 272 264 257 252 252 251 251 250
336 335 333 332 332 331 325 320 322 328 319 318 320 323 324 325 319 314 306 298 289 292 297 301 302 302 298 298 298 298 295 291 285 283 281 279 274 268 262 257 255 252 250
337 337 335 332 329 327 321 316 318 317 313 312 319 325 321 315 308 305 300 292 283 296 283 286 292 296 295 297 299 297 294 292 292 291 290 288 284 279 272 266 261 256 251
335 336 333 328 326 324 318 323 324 320 315 314 316 314 312 309 307 305 302 293 297 295 284 281 286 291 292 290 288 295 296 289 290 293 292 288 282 276 273 272 268 262 255
336 327 326 326 325 323 327 328 325 322 319 318 316 309 306 311 312 313 314 312 307 300 298 297 295 294 292 293 290 289 290 291 282 278 284 282 277 274 272 271 268 261 256
327 326 325 325 327 329 326 328 327 319 318 318 317 314 310 309 311 317 313 309 309 308 308 303 299 295 294 291 289 288 292 293 291 257 265 275 277 279 274 263 262 260 255
322 323 322 322 320 318 323 326 324 322 315 312 308 310 313 314 316 304 304 309 309 307 303 296 291 289 289 288 291 293 291 289 286 282 281 279 266 268 266 264 265 260 258
320 318 317 314 312 314 322 323 322 321 309 303 303 305 306 307 310 314 313 311 305 303 299 297 288 286 287 289 289 291 290 287 281 273 259 269 266 263 264 261 264 261 259
318 312 310 308 309 311 317 320 324 315 307 304 303 306 310 310 314 321 320 313 310 307 308 305 304 302 302 303 301 297 292 292 293 291 274 266 268 262 262 265 265 257 244
308 309 308 305 302 304 311 321 324 314 312 311 309 306 312 317 319 323 320 316 314 311 309 309 307 303 298 292 297 295 298 300 299 295 281 266 268 260 272 302 309 273 190